Theta_e
347 344 327 321 311 307 306 312 323 318 319 328 329 330 327 330 327 315 337 341 347 350 356 362 365 365 364 363 362 360 361 361 360 360 359 360 361 360 360 360 361 360 358 357 357 356 355 354 353
333 332 319 313 305 300 303 318 317 319 323 328 330 331 328 323 335 334 336 343 347 351 354 360 365 364 364 363 361 360 360 360 360 361 359 360 361 361 361 361 360 359 358 358 357 356 355 355 355
323 319 311 306 300 298 303 318 323 323 324 327 328 334 331 327 337 337 341 345 348 348 353 360 364 364 363 362 361 360 360 360 360 360 359 360 361 362 362 361 362 360 357 357 357 356 357 356 355
309 316 312 302 299 304 307 319 322 322 325 329 334 328 335 337 337 340 344 344 344 347 353 362 363 363 363 361 360 360 360 360 361 359 359 359 359 361 361 362 361 358 359 359 358 358 358 358 358
309 310 302 297 300 305 308 314 322 321 326 328 334 327 330 338 341 342 341 342 343 348 354 359 363 363 362 360 359 359 359 361 361 360 359 359 360 360 360 359 360 360 360 358 357 359 359 357 355
305 306 296 296 300 307 309 312 319 325 327 333 327 325 329 339 339 339 340 342 344 349 352 357 363 363 361 360 360 360 360 361 361 360 360 359 360 360 359 358 358 359 358 358 357 357 355 354 353
301 298 296 296 300 304 307 310 310 318 327 332 335 326 329 334 339 339 340 344 344 350 351 353 355 359 361 360 360 361 360 361 360 360 360 359 359 358 358 357 357 357 357 357 356 356 355 354 354
302 298 296 297 298 299 306 307 317 321 323 340 338 326 324 333 338 339 343 343 342 346 349 347 349 350 354 356 360 361 360 360 360 359 359 358 358 357 357 354 356 357 357 357 357 356 356 356 355
304 294 292 296 297 300 305 301 317 327 333 334 337 334 334 336 339 340 339 339 339 343 346 348 346 346 349 353 355 360 359 359 359 358 358 355 349 349 350 352 355 357 357 357 357 357 356 356 355
300 294 296 302 301 302 303 301 306 328 331 330 332 336 337 336 338 336 334 334 335 339 342 345 347 346 347 353 350 350 351 353 353 352 350 346 343 343 345 349 355 357 357 357 357 357 356 354 346
301 298 302 306 304 305 302 303 306 327 326 331 329 331 333 332 336 336 335 335 335 337 341 344 345 345 346 348 346 347 346 349 348 348 347 343 342 339 342 340 348 348 354 347 351 350 349 347 342
298 304 307 307 309 301 301 301 303 310 315 336 334 335 333 330 330 334 335 336 335 336 338 342 343 342 343 345 346 345 345 344 343 344 344 340 337 335 335 340 342 342 341 342 340 342 344 343 343
298 303 306 309 305 301 301 300 303 307 322 338 336 334 331 330 330 330 335 336 335 334 337 339 341 340 341 344 343 343 344 343 342 341 342 340 335 336 336 339 339 339 338 336 336 337 339 342 341
299 301 305 304 304 299 298 299 310 311 322 333 331 329 331 330 329 330 332 334 334 334 334 336 338 339 342 343 341 342 343 343 342 340 342 342 338 337 336 339 339 337 336 336 334 336 337 338 336
299 296 298 300 300 299 300 296 305 312 320 330 331 331 332 333 335 334 335 333 334 334 334 334 335 335 341 340 339 340 341 343 342 341 341 343 341 339 338 336 335 337 335 335 335 336 338 336 336
294 293 290 296 301 301 300 292 307 319 327 327 330 329 329 330 332 334 337 338 338 336 332 334 337 336 338 338 337 339 341 341 341 341 341 342 341 341 339 335 333 335 335 335 336 336 334 336 335
292 290 291 295 299 299 297 300 310 326 325 322 323 325 326 327 328 331 334 336 338 337 334 333 334 334 337 337 336 336 336 336 339 338 341 341 343 342 340 338 335 337 335 336 336 336 333 334 334
289 290 292 293 298 297 297 304 313 323 322 320 320 321 322 323 325 331 334 337 338 338 338 340 336 336 335 337 336 335 334 334 334 335 339 342 343 342 341 339 336 334 337 337 335 334 332 337 341
295 295 296 298 299 296 300 305 315 320 318 316 317 318 319 323 327 332 332 332 333 334 333 335 341 342 336 337 337 337 336 337 338 337 339 343 344 343 341 339 337 335 335 335 336 331 330 332 337
298 296 292 296 301 301 305 304 310 316 315 317 316 315 317 321 324 326 326 327 329 329 328 329 330 330 333 340 340 337 339 339 338 338 331 330 332 334 340 338 337 335 337 337 335 334 333 332 335
292 294 293 293 297 302 304 301 305 312 315 316 316 316 317 320 320 321 322 322 324 324 324 325 326 326 326 329 334 337 338 337 335 332 327 328 331 332 333 335 334 334 334 336 336 336 331 332 334
290 296 297 294 292 287 295 290 300 304 306 310 311 312 315 317 319 319 320 319 320 321 321 318 320 323 323 325 328 329 329 330 330 329 328 328 331 331 334 333 330 329 329 328 333 338 333 331 329
295 297 295 295 291 289 289 285 292 304 302 305 307 310 314 316 317 316 316 317 317 317 316 316 316 316 318 318 322 323 323 323 325 327 327 329 330 331 334 333 330 329 329 328 327 327 329 331 329
299 294 291 288 285 280 287 287 285 301 305 305 307 309 312 315 315 316 317 316 315 316 315 314 314 313 314 315 315 316 317 318 317 317 316 317 323 322 318 327 329 328 328 329 330 328 326 327 329
293 287 281 281 280 281 288 285 287 302 308 308 306 308 311 313 314 314 312 312 312 313 313 312 310 309 310 311 313 313 313 312 311 309 311 311 311 311 312 314 314 318 320 325 327 326 326 327 328
290 288 282 278 278 282 289 289 297 306 310 310 310 310 311 310 312 310 310 311 312 312 311 310 308 307 309 312 312 312 311 310 311 310 308 307 308 309 310 311 311 311 313 314 316 321 321 321 324
291 286 288 284 283 282 285 298 305 307 307 308 308 309 309 310 311 310 310 311 312 311 310 309 309 313 313 312 311 311 311 308 309 308 309 308 306 304 304 305 308 309 310 311 312 313 313 313 313
293 294 285 282 280 278 283 290 294 300 304 305 307 307 307 308 309 309 310 310 310 310 310 309 309 312 312 312 312 308 307 305 303 302 301 307 303 301 301 301 302 303 305 308 309 309 309 310 311
290 287 287 285 283 279 278 282 298 304 305 306 305 307 308 308 308 309 309 309 309 309 308 308 309 311 310 310 310 310 307 304 302 300 300 300 299 300 300 300 300 301 301 302 302 305 307 307 308
293 290 289 284 283 284 284 285 298 307 307 303 303 309 309 310 309 309 309 309 308 308 307 308 309 307 309 309 308 308 305 304 302 301 300 299 298 299 299 300 300 300 300 304 303 301 301 302 305
Wind_Speed
10 7 3 3 4 4 3 5 2 16 11 6 8 5 7 3 2 4 1 12 19 14 13 15 21 21 21 21 19 18 17 15 15 15 15 15 15 16 15 15 15 15 16 15 14 14 14 15 16
6 4 3 2 4 2 5 5 11 19 17 9 6 4 6 3 6 10 8 14 16 15 11 14 21 21 21 20 19 18 17 16 15 15 15 14 14 14 14 14 14 14 14 14 13 13 14 15 16
5 2 4 4 4 7 5 8 7 18 21 5 10 3 6 4 11 8 13 17 14 12 10 15 20 21 20 20 19 17 17 16 14 14 15 14 12 11 12 13 12 13 13 12 11 12 13 13 13
4 4 4 3 9 8 6 6 7 11 16 11 10 7 5 3 11 11 18 18 14 10 8 16 19 20 20 19 18 17 17 16 15 14 14 14 13 10 10 11 10 11 12 10 10 9 9 10 10
3 3 1 3 10 11 4 12 13 11 3 7 10 4 4 5 22 24 20 17 18 13 10 13 19 19 20 19 18 17 16 15 15 15 14 13 11 10 10 9 9 9 9 8 9 8 7 7 8
3 3 3 6 12 6 7 12 12 14 13 10 10 8 4 17 24 19 19 16 15 16 11 13 18 18 19 18 17 16 16 16 15 14 13 12 11 10 10 9 8 8 8 6 6 6 7 8 7
6 5 6 5 7 9 5 9 9 22 15 5 15 8 9 14 17 18 16 15 15 14 11 9 10 15 19 18 17 16 15 16 15 14 13 12 10 10 9 9 9 8 7 7 7 6 5 4 4
5 5 3 5 5 6 8 12 11 18 8 17 16 8 16 17 21 19 16 14 15 14 12 9 6 6 11 11 17 16 14 15 14 14 13 12 11 9 9 9 9 8 7 7 7 7 6 2 2
4 3 4 8 1 7 11 10 8 8 20 7 2 11 19 22 22 20 14 12 11 10 11 12 9 6 6 9 11 15 18 15 13 13 13 10 5 6 7 8 9 10 9 9 8 7 5 3 4
5 5 9 6 2 7 10 5 7 4 10 8 11 14 18 25 24 22 18 15 14 15 13 13 14 11 8 8 7 5 8 6 6 5 6 4 5 5 7 8 11 10 10 10 9 7 6 5 3
4 7 7 10 5 6 6 9 3 7 6 17 19 19 17 21 19 19 19 22 21 18 13 14 13 11 12 8 5 3 2 2 4 6 5 5 4 4 3 3 4 4 9 4 5 4 3 4 4
4 10 15 11 11 4 6 4 6 6 8 12 23 22 16 15 20 21 19 16 17 17 15 16 14 13 10 8 6 4 4 3 2 4 6 4 3 4 4 4 4 4 3 6 5 4 5 5 5
6 13 9 15 10 7 5 3 6 4 9 14 18 19 17 15 15 12 18 16 14 16 15 16 17 15 13 12 9 7 6 5 5 4 5 4 4 4 4 4 4 4 4 4 4 5 5 6 7
6 11 15 9 14 5 4 3 9 5 14 14 10 7 6 8 7 6 12 20 19 17 17 16 17 16 15 13 14 10 9 9 7 5 6 7 5 5 4 4 4 4 4 4 5 5 5 7 6
6 7 8 11 8 8 6 4 7 6 15 17 15 14 16 14 17 12 10 7 14 10 16 18 14 15 15 14 13 10 9 9 8 9 9 9 8 7 7 5 4 6 5 6 5 4 5 6 4
2 4 4 7 7 5 11 8 6 7 20 15 16 15 17 15 14 13 13 11 7 5 13 16 14 9 14 12 9 8 8 8 8 7 6 10 9 9 8 6 5 5 3 5 4 5 5 7 6
5 3 3 7 7 4 5 6 6 11 19 13 10 12 14 13 13 12 11 11 10 7 5 14 10 13 11 9 9 8 8 7 8 5 7 9 10 9 8 6 6 6 3 3 3 3 5 8 6
4 3 6 8 9 7 5 7 10 11 18 13 11 11 13 12 8 9 11 12 10 9 9 7 1 7 6 2 3 2 3 4 4 4 5 9 10 10 8 6 6 6 5 4 4 5 1 9 9
5 7 15 13 6 7 9 8 13 9 16 13 10 11 11 11 6 10 11 11 10 11 13 11 7 6 3 2 1 2 3 2 3 3 2 3 6 7 8 7 6 6 6 7 5 3 5 2 5
7 6 8 6 8 9 9 7 6 7 8 12 15 10 11 10 9 9 10 11 11 10 10 10 11 10 6 3 1 0 1 2 3 6 7 6 9 8 7 7 9 7 4 5 6 6 4 3 7
3 6 5 4 5 8 7 5 5 4 9 9 8 8 9 10 10 7 8 7 8 10 9 9 9 9 6 6 2 2 3 3 3 3 3 4 6 6 5 5 10 11 13 7 5 6 7 4 9
4 5 6 7 6 2 2 4 1 1 6 9 11 9 9 10 9 7 6 8 8 7 8 8 8 11 7 7 7 7 3 1 2 2 1 2 1 1 2 4 5 5 10 16 16 4 3 6 7
4 3 6 5 4 2 1 6 7 6 7 11 9 11 11 9 9 8 7 8 7 7 7 7 9 11 9 9 8 5 6 3 3 4 7 5 4 3 1 0 3 5 3 9 10 10 6 2 3
5 7 10 6 5 2 6 4 4 11 15 11 10 10 12 11 9 8 7 7 6 6 7 7 10 9 9 10 10 9 8 6 5 6 5 6 6 7 9 7 2 3 5 7 10 9 8 5 4
9 8 5 5 5 6 5 3 10 17 14 18 17 14 12 11 11 9 8 7 7 7 6 6 7 8 7 9 9 7 8 8 7 6 5 7 5 4 5 5 5 4 4 4 5 9 11 11 8
5 9 7 5 3 5 7 5 7 10 12 14 15 15 11 11 11 7 8 8 8 7 6 6 6 7 7 9 8 7 7 4 3 5 4 4 4 3 3 3 4 4 4 4 5 3 3 5 5
2 3 6 6 1 3 3 2 3 7 13 12 14 13 13 12 12 11 8 8 7 6 6 6 6 7 7 6 5 5 5 5 4 4 3 3 3 3 4 5 4 4 4 3 2 2 4 4 3
6 5 3 4 4 4 4 4 6 5 12 12 19 18 14 11 9 8 8 8 6 7 6 6 6 6 5 5 4 4 4 4 4 4 4 5 4 5 5 5 5 5 5 4 2 1 2 2 2
4 1 5 6 6 6 2 7 6 17 18 15 13 12 15 13 12 10 9 8 9 8 7 7 7 7 5 4 3 3 3 4 4 3 3 3 4 5 5 5 5 5 5 5 4 4 4 3 4
5 8 6 7 5 2 5 8 6 14 14 9 15 19 17 16 13 11 12 10 8 8 8 8 7 7 6 4 3 3 3 3 3 3 3 3 3 3 4 5 5 5 5 5 5 5 4 3 3
Wind_Direction
143 162 165 53 50 73 252 195 76 34 340 225 296 202 118 60 140 195 129 132 133 136 141 140 138 137 134 133 133 132 128 127 122 118 118 114 114 115 114 116 116 118 119 118 120 118 115 115 113
137 145 32 74 103 136 256 143 201 148 237 220 299 211 56 81 70 122 101 135 137 133 135 140 139 137 135 135 135 133 133 131 128 125 122 120 119 118 120 121 121 123 123 122 120 115 112 110 110
143 165 100 146 183 173 213 204 187 191 218 193 192 87 99 103 115 139 131 131 134 124 127 141 138 137 136 136 136 134 133 131 130 129 128 125 122 125 126 125 126 129 129 127 124 115 109 108 110
147 26 8 141 237 245 180 196 197 222 221 222 119 66 69 196 138 132 131 132 121 123 123 135 137 136 135 139 138 137 136 136 135 134 132 130 129 122 120 128 140 142 137 138 130 120 119 121 121
48 75 152 219 251 252 182 229 178 259 266 158 163 106 76 47 112 127 137 137 137 133 131 139 142 141 141 143 142 141 141 142 138 137 137 133 132 130 126 129 128 130 132 146 133 137 139 136 128
67 106 86 234 253 255 247 203 199 211 257 142 99 111 72 140 130 139 143 140 144 135 132 144 149 147 144 144 146 147 149 145 139 140 140 139 138 135 136 133 134 141 147 159 151 157 170 155 157
135 106 204 231 253 290 286 236 215 206 174 162 136 112 130 150 139 139 141 139 139 135 133 136 145 148 146 146 149 152 153 144 146 145 143 144 146 143 147 144 150 157 168 176 176 176 208 167 146
132 104 230 244 230 288 274 301 141 170 160 145 136 150 161 165 151 138 137 136 142 146 142 136 138 138 144 151 154 155 156 152 153 151 152 153 155 155 159 165 164 173 183 192 204 199 196 205 85
138 66 231 242 91 254 305 350 343 53 121 117 170 138 154 143 126 129 129 125 137 146 151 149 142 132 129 147 165 162 162 161 160 161 163 160 159 167 178 183 188 187 193 204 209 220 199 173 108
135 167 231 184 257 291 298 344 322 75 116 108 95 121 145 131 139 141 149 151 161 159 167 165 158 151 147 156 165 164 174 162 164 165 168 163 176 181 187 198 198 201 203 209 205 215 211 150 120
200 221 245 275 262 246 284 326 19 109 120 152 147 141 153 144 144 150 161 169 173 170 165 168 164 161 156 157 138 153 135 164 165 170 176 184 182 200 210 209 205 193 205 210 200 200 176 141 138
223 228 236 262 255 277 274 283 24 93 197 161 150 158 155 157 155 168 168 168 164 174 170 166 166 160 174 146 156 165 156 173 190 201 190 178 202 210 213 215 209 202 197 197 195 182 158 150 142
200 248 244 245 257 237 283 255 140 90 128 146 152 155 161 165 175 153 171 164 162 169 169 178 169 172 170 165 166 171 180 185 193 201 201 180 193 215 216 223 204 216 199 191 200 196 160 167 166
213 229 250 256 250 243 231 178 109 279 128 126 114 119 127 159 109 88 132 162 169 174 175 175 179 180 167 175 172 180 184 187 188 197 202 199 195 207 214 216 214 227 212 205 187 208 155 166 171
250 267 272 246 224 227 162 286 137 182 88 96 93 84 74 72 73 61 68 119 183 180 166 177 181 183 176 184 174 176 188 189 196 197 202 201 202 205 211 225 203 226 213 206 196 206 123 139 177
357 154 187 273 166 236 129 240 159 113 100 100 102 92 83 69 79 68 60 64 45 122 165 179 181 174 184 183 182 182 182 185 198 204 206 208 201 208 209 202 214 222 218 198 202 175 160 156 174
5 248 242 294 211 129 112 149 118 122 105 102 96 91 86 76 50 49 60 56 42 30 127 179 183 168 182 180 183 189 182 180 195 193 203 214 217 207 207 207 203 180 189 187 244 148 136 155 173
237 278 268 228 239 148 131 157 130 135 114 119 107 98 88 79 64 53 47 58 48 31 39 45 136 135 127 140 168 167 166 193 175 200 209 219 220 221 207 214 223 180 160 193 184 183 184 169 163
241 287 255 238 217 115 169 138 151 137 111 113 111 106 98 92 87 67 64 55 48 40 41 24 46 14 120 110 146 135 187 174 187 190 53 356 281 254 220 214 206 210 203 186 205 195 159 131 148
269 235 352 357 18 88 144 146 123 125 120 133 131 124 118 107 79 60 52 53 53 44 50 46 41 39 10 37 355 31 250 94 62 84 58 41 50 48 32 14 344 299 179 178 176 181 174 141 189
92 83 36 43 345 53 98 32 124 104 115 119 113 118 108 114 104 83 70 59 57 54 48 56 72 65 32 15 343 22 33 31 13 66 71 56 49 50 44 41 52 23 360 294 199 190 194 167 199
87 127 81 49 64 176 100 223 147 199 111 124 133 127 118 102 88 84 74 68 55 52 56 52 45 63 46 36 55 53 57 45 8 329 222 236 202 87 82 24 59 39 40 337 323 298 192 170 188
152 100 102 127 88 27 11 102 254 143 164 172 164 140 121 119 111 101 89 79 67 56 52 51 57 55 43 47 44 50 75 41 341 2 355 329 299 278 14 45 25 30 129 296 305 324 18 309 288
124 50 30 57 106 81 247 139 262 191 197 171 174 137 133 128 117 112 98 90 78 59 56 53 62 57 53 54 46 41 46 32 21 12 18 1 9 42 19 345 27 174 248 222 267 306 274 255 254
76 58 1 0 14 212 252 100 229 216 191 175 158 150 146 134 130 130 124 108 96 87 77 65 62 64 62 68 64 54 51 41 38 23 14 17 18 22 24 33 22 26 14 297 248 269 282 296 295
164 140 151 199 201 259 310 266 286 304 146 145 151 149 147 133 136 147 145 138 124 114 105 97 86 80 70 74 73 68 64 53 44 47 40 26 15 10 9 21 36 34 67 35 349 306 324 329 301
162 95 178 118 24 74 259 305 347 14 113 134 145 151 159 158 148 157 154 135 126 126 131 130 119 107 88 89 89 82 69 66 63 60 44 24 15 347 2 24 27 25 38 39 357 315 315 316 342
125 161 45 12 155 201 282 246 213 219 168 153 163 171 164 162 154 163 153 133 120 135 138 132 119 110 105 93 81 74 86 77 65 45 51 28 13 14 13 11 14 8 9 360 336 3 307 333 313
31 27 75 118 135 161 220 266 218 192 188 180 168 164 170 177 178 171 153 151 159 156 157 155 144 139 111 90 67 70 63 69 60 59 50 38 18 5 10 9 10 13 11 354 354 342 339 327 284
174 199 133 126 235 175 159 268 291 190 186 148 165 183 186 183 175 170 162 174 172 169 165 153 141 135 118 108 101 60 63 50 38 38 43 58 44 22 13 360 1 5 7 359 357 343 342 324 303